Terug naar catalogus

PSLV R/B

ActiefSSO
NORAD 28050·ROCKET BODY·🇮🇳 India

Gelanceerd Oct 17, 2003 vanaf Satish Dhawan Space Centre

Loading…

Volgende Passages (komende 24 uur)

TLE

VersSource: Space-Track

Epoch: Sep 14, 2026, 10:04 UTC

1 28050U 03046B   26257.41971372  .00000036  00000-0  40084-4 0  9993
2 28050  99.0765 238.2972 0051031  18.9937 143.5363 14.17613267184739

Volg PSLV R/B in realtime met AllMySat

Download on the App Store